Location: Belfast
(54.5830°N, 5.9330°W)
Time: 23:41:29
(UTC+00:00)

ISS - Visible Passes

Search period start: 25 January 2021 00:00
Search period end: 04 February 2021 00:00
Orbit: 418 x 421 km, 51.6° (Epoch: 26 January)

Date Brightness Start Highest point End Pass type
(mag) Time Alt. Az. Time Alt. Az. Time Alt. Az.
25 Jan -2.9 18:32:35 10° SW 18:35:47 39° SSE 18:37:00 28° ESE visible
25 Jan -0.9 20:09:01 10° W 20:09:58 17° WSW 20:09:58 17° WSW visible
26 Jan -2.5 17:45:28 10° SW 17:48:32 33° SSE 17:51:36 10° E visible
26 Jan -3.0 19:21:44 10° WSW 19:24:35 47° SSW 19:24:35 47° SSW visible
27 Jan -3.2 18:34:27 10° WSW 18:37:45 50° S 18:39:10 28° ESE visible
27 Jan -0.9 20:11:05 10° W 20:12:09 18° WSW 20:12:09 18° WSW visible
28 Jan -3.0 17:47:12 10° WSW 17:50:27 46° S 17:53:43 10° E visible
28 Jan -2.9 19:23:45 10° W 19:26:44 45° SSW 19:26:44 45° SSW visible
29 Jan -3.1 18:36:25 10° W 18:39:42 50° S 18:41:21 25° ESE visible
29 Jan -0.9 20:13:13 10° W 20:14:20 17° WSW 20:14:20 17° WSW visible
30 Jan -3.1 17:49:05 10° WSW 17:52:23 52° S 17:55:42 10° ESE visible
30 Jan -2.5 19:25:47 10° W 19:28:53 33° SSW 19:28:59 33° SSW visible
31 Jan -2.7 18:38:23 10° W 18:41:36 40° SSW 18:43:41 18° SE visible
31 Jan -0.8 20:15:41 10° WSW 20:16:40 14° WSW 20:16:40 14° WSW visible
01 Feb -2.8 17:51:00 10° W 17:54:16 46° S 17:57:32 10° ESE visible
01 Feb -1.7 19:28:00 10° W 19:30:36 21° SSW 19:31:26 19° S visible
02 Feb -1.9 18:40:27 10° W 18:43:21 27° SSW 18:46:16 10° SE visible
03 Feb -2.1 17:52:58 10° W 17:56:04 33° SSW 17:59:09 10° SE visible
03 Feb -0.8 19:30:59 10° WSW 19:32:09 11° SW 19:33:19 10° SSW visible
